Location: Boiro
(42.6475°N, 8.8834°W)
Time: 03:55:39
(UTC+01:00)

Vanguard 2 - Pass Details

Date: 30 November 2021
Orbit: 553 x 2936 km, 32.9° (Epoch: 20 January)

Event Time Altitude Azimuth Distance (km) Brightness Sun altitude
Rises 15:54:52 0° 230° (SW) 3,138 12.2 16.9°
Reaches altitude 10° 15:57:09 10° 219° (SW) 2,411 12.9 16.6°
Maximum altitude 16:02:07 31° 158° (SSE) 1,784 10.0 16.1°
Drops below altitude 10° 16:09:34 10° 101° (E) 3,681 10.8 15.2°
Sets 16:13:57 0° 93° (E) 5,110 11.4 14.7°
